<?xml version="1.0"?>
<gpx xmlns="http://www.topografix.com/GPX/1/1" xmlns:xsi="http://www.w3.org/2001/XMLSchema-instance" version="1.1" creator="GPX RubyGem 1.0.0 -- http://dougfales.github.io/gpx/" xsi:schemaLocation="http://www.topografix.com/GPX/1/1 http://www.topografix.com/GPX/1/1/gpx.xsd">
  <metadata>
    <name/>
    <time>2026-05-07T21:03:38+00:00</time>
    <bound minlat="90.0" minlon="180.0" maxlat="-90.0" maxlon="-180.0"/>
  </metadata>
  <trk>
    <name/>
    <trkseg>
      <trkpt lat="41.886307" lon="2.880633">
        <time>1970-01-01T00:00:00+00:00</time>
        <ele>141.0</ele>
      </trkpt>
      <trkpt lat="41.88623" lon="2.88137">
        <time>1970-01-01T00:00:00+00:00</time>
        <ele>143.0</ele>
      </trkpt>
      <trkpt lat="41.885965" lon="2.882258">
        <time>1970-01-01T00:00:00+00:00</time>
        <ele>145.0</ele>
      </trkpt>
      <trkpt lat="41.885815" lon="2.882727">
        <time>1970-01-01T00:00:00+00:00</time>
        <ele>143.0</ele>
      </trkpt>
      <trkpt lat="41.885805" lon="2.882807">
        <time>1970-01-01T00:00:00+00:00</time>
        <ele>142.0</ele>
      </trkpt>
      <trkpt lat="41.885653" lon="2.883967">
        <time>1970-01-01T00:00:00+00:00</time>
        <ele>142.0</ele>
      </trkpt>
      <trkpt lat="41.885654" lon="2.885162">
        <time>1970-01-01T00:00:00+00:00</time>
        <ele>143.0</ele>
      </trkpt>
      <trkpt lat="41.885293" lon="2.886457">
        <time>1970-01-01T00:00:00+00:00</time>
        <ele>150.0</ele>
      </trkpt>
      <trkpt lat="41.885283" lon="2.887068">
        <time>1970-01-01T00:00:00+00:00</time>
        <ele>152.0</ele>
      </trkpt>
      <trkpt lat="41.885209" lon="2.88742">
        <time>1970-01-01T00:00:00+00:00</time>
        <ele>155.0</ele>
      </trkpt>
      <trkpt lat="41.884383" lon="2.887978">
        <time>1970-01-01T00:00:00+00:00</time>
        <ele>159.0</ele>
      </trkpt>
      <trkpt lat="41.884313" lon="2.888005">
        <time>1970-01-01T00:00:00+00:00</time>
        <ele>159.0</ele>
      </trkpt>
      <trkpt lat="41.884198" lon="2.888533">
        <time>1970-01-01T00:00:00+00:00</time>
        <ele>156.0</ele>
      </trkpt>
      <trkpt lat="41.884123" lon="2.889071">
        <time>1970-01-01T00:00:00+00:00</time>
        <ele>156.0</ele>
      </trkpt>
      <trkpt lat="41.884074" lon="2.889693">
        <time>1970-01-01T00:00:00+00:00</time>
        <ele>158.0</ele>
      </trkpt>
      <trkpt lat="41.884064" lon="2.890051">
        <time>1970-01-01T00:00:00+00:00</time>
        <ele>158.0</ele>
      </trkpt>
      <trkpt lat="41.884078" lon="2.890191">
        <time>1970-01-01T00:00:00+00:00</time>
        <ele>158.0</ele>
      </trkpt>
      <trkpt lat="41.88415" lon="2.890377">
        <time>1970-01-01T00:00:00+00:00</time>
        <ele>159.0</ele>
      </trkpt>
      <trkpt lat="41.884324" lon="2.890579">
        <time>1970-01-01T00:00:00+00:00</time>
        <ele>161.0</ele>
      </trkpt>
      <trkpt lat="41.884984" lon="2.891097">
        <time>1970-01-01T00:00:00+00:00</time>
        <ele>165.0</ele>
      </trkpt>
      <trkpt lat="41.88509" lon="2.891254">
        <time>1970-01-01T00:00:00+00:00</time>
        <ele>166.0</ele>
      </trkpt>
      <trkpt lat="41.885113" lon="2.891329">
        <time>1970-01-01T00:00:00+00:00</time>
        <ele>166.0</ele>
      </trkpt>
      <trkpt lat="41.885129" lon="2.891481">
        <time>1970-01-01T00:00:00+00:00</time>
        <ele>165.0</ele>
      </trkpt>
      <trkpt lat="41.885149" lon="2.892461">
        <time>1970-01-01T00:00:00+00:00</time>
        <ele>166.0</ele>
      </trkpt>
      <trkpt lat="41.88517" lon="2.892645">
        <time>1970-01-01T00:00:00+00:00</time>
        <ele>168.0</ele>
      </trkpt>
      <trkpt lat="41.885216" lon="2.892759">
        <time>1970-01-01T00:00:00+00:00</time>
        <ele>169.0</ele>
      </trkpt>
      <trkpt lat="41.885264" lon="2.892829">
        <time>1970-01-01T00:00:00+00:00</time>
        <ele>170.0</ele>
      </trkpt>
      <trkpt lat="41.885544" lon="2.893106">
        <time>1970-01-01T00:00:00+00:00</time>
        <ele>171.0</ele>
      </trkpt>
      <trkpt lat="41.885593" lon="2.893203">
        <time>1970-01-01T00:00:00+00:00</time>
        <ele>172.0</ele>
      </trkpt>
      <trkpt lat="41.885744" lon="2.893836">
        <time>1970-01-01T00:00:00+00:00</time>
        <ele>174.0</ele>
      </trkpt>
      <trkpt lat="41.885871" lon="2.894207">
        <time>1970-01-01T00:00:00+00:00</time>
        <ele>176.0</ele>
      </trkpt>
      <trkpt lat="41.885991" lon="2.894742">
        <time>1970-01-01T00:00:00+00:00</time>
        <ele>178.0</ele>
      </trkpt>
      <trkpt lat="41.885923" lon="2.894969">
        <time>1970-01-01T00:00:00+00:00</time>
        <ele>179.0</ele>
      </trkpt>
      <trkpt lat="41.885832" lon="2.895179">
        <time>1970-01-01T00:00:00+00:00</time>
        <ele>179.0</ele>
      </trkpt>
      <trkpt lat="41.885927" lon="2.8954">
        <time>1970-01-01T00:00:00+00:00</time>
        <ele>179.0</ele>
      </trkpt>
      <trkpt lat="41.885951" lon="2.895511">
        <time>1970-01-01T00:00:00+00:00</time>
        <ele>179.0</ele>
      </trkpt>
      <trkpt lat="41.885947" lon="2.895556">
        <time>1970-01-01T00:00:00+00:00</time>
        <ele>179.0</ele>
      </trkpt>
      <trkpt lat="41.885907" lon="2.895642">
        <time>1970-01-01T00:00:00+00:00</time>
        <ele>178.0</ele>
      </trkpt>
      <trkpt lat="41.885698" lon="2.895797">
        <time>1970-01-01T00:00:00+00:00</time>
        <ele>176.0</ele>
      </trkpt>
      <trkpt lat="41.885675" lon="2.89587">
        <time>1970-01-01T00:00:00+00:00</time>
        <ele>175.0</ele>
      </trkpt>
      <trkpt lat="41.885762" lon="2.896213">
        <time>1970-01-01T00:00:00+00:00</time>
        <ele>172.0</ele>
      </trkpt>
      <trkpt lat="41.885809" lon="2.896707">
        <time>1970-01-01T00:00:00+00:00</time>
        <ele>170.0</ele>
      </trkpt>
      <trkpt lat="41.885889" lon="2.896969">
        <time>1970-01-01T00:00:00+00:00</time>
        <ele>171.0</ele>
      </trkpt>
      <trkpt lat="41.885953" lon="2.897251">
        <time>1970-01-01T00:00:00+00:00</time>
        <ele>175.0</ele>
      </trkpt>
      <trkpt lat="41.885948" lon="2.897387">
        <time>1970-01-01T00:00:00+00:00</time>
        <ele>177.0</ele>
      </trkpt>
      <trkpt lat="41.885927" lon="2.897479">
        <time>1970-01-01T00:00:00+00:00</time>
        <ele>177.0</ele>
      </trkpt>
      <trkpt lat="41.885872" lon="2.897593">
        <time>1970-01-01T00:00:00+00:00</time>
        <ele>177.0</ele>
      </trkpt>
      <trkpt lat="41.885775" lon="2.897671">
        <time>1970-01-01T00:00:00+00:00</time>
        <ele>176.0</ele>
      </trkpt>
      <trkpt lat="41.885738" lon="2.897737">
        <time>1970-01-01T00:00:00+00:00</time>
        <ele>175.0</ele>
      </trkpt>
      <trkpt lat="41.885723" lon="2.897802">
        <time>1970-01-01T00:00:00+00:00</time>
        <ele>175.0</ele>
      </trkpt>
      <trkpt lat="41.885699" lon="2.897914">
        <time>1970-01-01T00:00:00+00:00</time>
        <ele>174.0</ele>
      </trkpt>
      <trkpt lat="41.885566" lon="2.898304">
        <time>1970-01-01T00:00:00+00:00</time>
        <ele>172.0</ele>
      </trkpt>
      <trkpt lat="41.885551" lon="2.898422">
        <time>1970-01-01T00:00:00+00:00</time>
        <ele>172.0</ele>
      </trkpt>
      <trkpt lat="41.885557" lon="2.898565">
        <time>1970-01-01T00:00:00+00:00</time>
        <ele>172.0</ele>
      </trkpt>
      <trkpt lat="41.885612" lon="2.898826">
        <time>1970-01-01T00:00:00+00:00</time>
        <ele>173.0</ele>
      </trkpt>
      <trkpt lat="41.885609" lon="2.898919">
        <time>1970-01-01T00:00:00+00:00</time>
        <ele>173.0</ele>
      </trkpt>
      <trkpt lat="41.885504" lon="2.899408">
        <time>1970-01-01T00:00:00+00:00</time>
        <ele>174.0</ele>
      </trkpt>
      <trkpt lat="41.885498" lon="2.899499">
        <time>1970-01-01T00:00:00+00:00</time>
        <ele>174.0</ele>
      </trkpt>
      <trkpt lat="41.885516" lon="2.899692">
        <time>1970-01-01T00:00:00+00:00</time>
        <ele>174.0</ele>
      </trkpt>
      <trkpt lat="41.885531" lon="2.899841">
        <time>1970-01-01T00:00:00+00:00</time>
        <ele>175.0</ele>
      </trkpt>
      <trkpt lat="41.885516" lon="2.899933">
        <time>1970-01-01T00:00:00+00:00</time>
        <ele>175.0</ele>
      </trkpt>
      <trkpt lat="41.885449" lon="2.900086">
        <time>1970-01-01T00:00:00+00:00</time>
        <ele>175.0</ele>
      </trkpt>
      <trkpt lat="41.88532" lon="2.900303">
        <time>1970-01-01T00:00:00+00:00</time>
        <ele>178.0</ele>
      </trkpt>
      <trkpt lat="41.885296" lon="2.900422">
        <time>1970-01-01T00:00:00+00:00</time>
        <ele>179.0</ele>
      </trkpt>
      <trkpt lat="41.885304" lon="2.900513">
        <time>1970-01-01T00:00:00+00:00</time>
        <ele>179.0</ele>
      </trkpt>
      <trkpt lat="41.885396" lon="2.900795">
        <time>1970-01-01T00:00:00+00:00</time>
        <ele>179.0</ele>
      </trkpt>
      <trkpt lat="41.88552" lon="2.901006">
        <time>1970-01-01T00:00:00+00:00</time>
        <ele>181.0</ele>
      </trkpt>
      <trkpt lat="41.885616" lon="2.901216">
        <time>1970-01-01T00:00:00+00:00</time>
        <ele>183.0</ele>
      </trkpt>
      <trkpt lat="41.88571" lon="2.901363">
        <time>1970-01-01T00:00:00+00:00</time>
        <ele>184.0</ele>
      </trkpt>
      <trkpt lat="41.885739" lon="2.901448">
        <time>1970-01-01T00:00:00+00:00</time>
        <ele>184.0</ele>
      </trkpt>
      <trkpt lat="41.885726" lon="2.901525">
        <time>1970-01-01T00:00:00+00:00</time>
        <ele>185.0</ele>
      </trkpt>
      <trkpt lat="41.885674" lon="2.901558">
        <time>1970-01-01T00:00:00+00:00</time>
        <ele>185.0</ele>
      </trkpt>
      <trkpt lat="41.885545" lon="2.901538">
        <time>1970-01-01T00:00:00+00:00</time>
        <ele>185.0</ele>
      </trkpt>
      <trkpt lat="41.885489" lon="2.901573">
        <time>1970-01-01T00:00:00+00:00</time>
        <ele>185.0</ele>
      </trkpt>
      <trkpt lat="41.885464" lon="2.901684">
        <time>1970-01-01T00:00:00+00:00</time>
        <ele>186.0</ele>
      </trkpt>
      <trkpt lat="41.885481" lon="2.901773">
        <time>1970-01-01T00:00:00+00:00</time>
        <ele>188.0</ele>
      </trkpt>
      <trkpt lat="41.885597" lon="2.902056">
        <time>1970-01-01T00:00:00+00:00</time>
        <ele>192.0</ele>
      </trkpt>
      <trkpt lat="41.885654" lon="2.902257">
        <time>1970-01-01T00:00:00+00:00</time>
        <ele>195.0</ele>
      </trkpt>
      <trkpt lat="41.885662" lon="2.902352">
        <time>1970-01-01T00:00:00+00:00</time>
        <ele>196.0</ele>
      </trkpt>
      <trkpt lat="41.885642" lon="2.902454">
        <time>1970-01-01T00:00:00+00:00</time>
        <ele>198.0</ele>
      </trkpt>
      <trkpt lat="41.885611" lon="2.902507">
        <time>1970-01-01T00:00:00+00:00</time>
        <ele>199.0</ele>
      </trkpt>
      <trkpt lat="41.885535" lon="2.90255">
        <time>1970-01-01T00:00:00+00:00</time>
        <ele>200.0</ele>
      </trkpt>
      <trkpt lat="41.885425" lon="2.902523">
        <time>1970-01-01T00:00:00+00:00</time>
        <ele>200.0</ele>
      </trkpt>
      <trkpt lat="41.885302" lon="2.902428">
        <time>1970-01-01T00:00:00+00:00</time>
        <ele>199.0</ele>
      </trkpt>
      <trkpt lat="41.88522" lon="2.902394">
        <time>1970-01-01T00:00:00+00:00</time>
        <ele>198.0</ele>
      </trkpt>
      <trkpt lat="41.885105" lon="2.902399">
        <time>1970-01-01T00:00:00+00:00</time>
        <ele>198.0</ele>
      </trkpt>
      <trkpt lat="41.885037" lon="2.902425">
        <time>1970-01-01T00:00:00+00:00</time>
        <ele>198.0</ele>
      </trkpt>
      <trkpt lat="41.884926" lon="2.902522">
        <time>1970-01-01T00:00:00+00:00</time>
        <ele>198.0</ele>
      </trkpt>
      <trkpt lat="41.884735" lon="2.902807">
        <time>1970-01-01T00:00:00+00:00</time>
        <ele>195.0</ele>
      </trkpt>
      <trkpt lat="41.884549" lon="2.902707">
        <time>1970-01-01T00:00:00+00:00</time>
        <ele>194.0</ele>
      </trkpt>
      <trkpt lat="41.884442" lon="2.902619">
        <time>1970-01-01T00:00:00+00:00</time>
        <ele>194.0</ele>
      </trkpt>
      <trkpt lat="41.883991" lon="2.9028">
        <time>1970-01-01T00:00:00+00:00</time>
        <ele>193.0</ele>
      </trkpt>
      <trkpt lat="41.883879" lon="2.902871">
        <time>1970-01-01T00:00:00+00:00</time>
        <ele>193.0</ele>
      </trkpt>
      <trkpt lat="41.883925" lon="2.903062">
        <time>1970-01-01T00:00:00+00:00</time>
        <ele>192.0</ele>
      </trkpt>
      <trkpt lat="41.88393" lon="2.903408">
        <time>1970-01-01T00:00:00+00:00</time>
        <ele>192.0</ele>
      </trkpt>
      <trkpt lat="41.883985" lon="2.90383">
        <time>1970-01-01T00:00:00+00:00</time>
        <ele>191.0</ele>
      </trkpt>
      <trkpt lat="41.884071" lon="2.904076">
        <time>1970-01-01T00:00:00+00:00</time>
        <ele>190.0</ele>
      </trkpt>
      <trkpt lat="41.884115" lon="2.904319">
        <time>1970-01-01T00:00:00+00:00</time>
        <ele>187.0</ele>
      </trkpt>
      <trkpt lat="41.884127" lon="2.904602">
        <time>1970-01-01T00:00:00+00:00</time>
        <ele>185.0</ele>
      </trkpt>
      <trkpt lat="41.8841" lon="2.905033">
        <time>1970-01-01T00:00:00+00:00</time>
        <ele>183.0</ele>
      </trkpt>
      <trkpt lat="41.884083" lon="2.90511">
        <time>1970-01-01T00:00:00+00:00</time>
        <ele>183.0</ele>
      </trkpt>
      <trkpt lat="41.883885" lon="2.905442">
        <time>1970-01-01T00:00:00+00:00</time>
        <ele>183.0</ele>
      </trkpt>
      <trkpt lat="41.8837" lon="2.905636">
        <time>1970-01-01T00:00:00+00:00</time>
        <ele>181.0</ele>
      </trkpt>
      <trkpt lat="41.883553" lon="2.906023">
        <time>1970-01-01T00:00:00+00:00</time>
        <ele>181.0</ele>
      </trkpt>
      <trkpt lat="41.883382" lon="2.906245">
        <time>1970-01-01T00:00:00+00:00</time>
        <ele>182.0</ele>
      </trkpt>
      <trkpt lat="41.883182" lon="2.906378">
        <time>1970-01-01T00:00:00+00:00</time>
        <ele>180.0</ele>
      </trkpt>
      <trkpt lat="41.883041" lon="2.906524">
        <time>1970-01-01T00:00:00+00:00</time>
        <ele>178.0</ele>
      </trkpt>
      <trkpt lat="41.882954" lon="2.9067">
        <time>1970-01-01T00:00:00+00:00</time>
        <ele>178.0</ele>
      </trkpt>
      <trkpt lat="41.88286" lon="2.907102">
        <time>1970-01-01T00:00:00+00:00</time>
        <ele>179.0</ele>
      </trkpt>
      <trkpt lat="41.882849" lon="2.907277">
        <time>1970-01-01T00:00:00+00:00</time>
        <ele>180.0</ele>
      </trkpt>
      <trkpt lat="41.882733" lon="2.90727">
        <time>1970-01-01T00:00:00+00:00</time>
        <ele>179.0</ele>
      </trkpt>
      <trkpt lat="41.8825" lon="2.907344">
        <time>1970-01-01T00:00:00+00:00</time>
        <ele>178.0</ele>
      </trkpt>
      <trkpt lat="41.882357" lon="2.907413">
        <time>1970-01-01T00:00:00+00:00</time>
        <ele>178.0</ele>
      </trkpt>
      <trkpt lat="41.882223" lon="2.907507">
        <time>1970-01-01T00:00:00+00:00</time>
        <ele>179.0</ele>
      </trkpt>
      <trkpt lat="41.882157" lon="2.907599">
        <time>1970-01-01T00:00:00+00:00</time>
        <ele>180.0</ele>
      </trkpt>
      <trkpt lat="41.882111" lon="2.907726">
        <time>1970-01-01T00:00:00+00:00</time>
        <ele>181.0</ele>
      </trkpt>
      <trkpt lat="41.882078" lon="2.907923">
        <time>1970-01-01T00:00:00+00:00</time>
        <ele>181.0</ele>
      </trkpt>
      <trkpt lat="41.88208" lon="2.908291">
        <time>1970-01-01T00:00:00+00:00</time>
        <ele>179.0</ele>
      </trkpt>
      <trkpt lat="41.882059" lon="2.908393">
        <time>1970-01-01T00:00:00+00:00</time>
        <ele>179.0</ele>
      </trkpt>
      <trkpt lat="41.881991" lon="2.908532">
        <time>1970-01-01T00:00:00+00:00</time>
        <ele>177.0</ele>
      </trkpt>
      <trkpt lat="41.881941" lon="2.908599">
        <time>1970-01-01T00:00:00+00:00</time>
        <ele>177.0</ele>
      </trkpt>
      <trkpt lat="41.881848" lon="2.908662">
        <time>1970-01-01T00:00:00+00:00</time>
        <ele>176.0</ele>
      </trkpt>
      <trkpt lat="41.881601" lon="2.908696">
        <time>1970-01-01T00:00:00+00:00</time>
        <ele>173.0</ele>
      </trkpt>
      <trkpt lat="41.881494" lon="2.908682">
        <time>1970-01-01T00:00:00+00:00</time>
        <ele>172.0</ele>
      </trkpt>
      <trkpt lat="41.881259" lon="2.908609">
        <time>1970-01-01T00:00:00+00:00</time>
        <ele>168.0</ele>
      </trkpt>
      <trkpt lat="41.881189" lon="2.908611">
        <time>1970-01-01T00:00:00+00:00</time>
        <ele>168.0</ele>
      </trkpt>
      <trkpt lat="41.881091" lon="2.908662">
        <time>1970-01-01T00:00:00+00:00</time>
        <ele>167.0</ele>
      </trkpt>
      <trkpt lat="41.880965" lon="2.908775">
        <time>1970-01-01T00:00:00+00:00</time>
        <ele>165.0</ele>
      </trkpt>
      <trkpt lat="41.880904" lon="2.908856">
        <time>1970-01-01T00:00:00+00:00</time>
        <ele>164.0</ele>
      </trkpt>
      <trkpt lat="41.88085" lon="2.909013">
        <time>1970-01-01T00:00:00+00:00</time>
        <ele>163.0</ele>
      </trkpt>
      <trkpt lat="41.880811" lon="2.909464">
        <time>1970-01-01T00:00:00+00:00</time>
        <ele>161.0</ele>
      </trkpt>
      <trkpt lat="41.880788" lon="2.909525">
        <time>1970-01-01T00:00:00+00:00</time>
        <ele>160.0</ele>
      </trkpt>
      <trkpt lat="41.880641" lon="2.909686">
        <time>1970-01-01T00:00:00+00:00</time>
        <ele>157.0</ele>
      </trkpt>
      <trkpt lat="41.880603" lon="2.909764">
        <time>1970-01-01T00:00:00+00:00</time>
        <ele>156.0</ele>
      </trkpt>
      <trkpt lat="41.880575" lon="2.909923">
        <time>1970-01-01T00:00:00+00:00</time>
        <ele>154.0</ele>
      </trkpt>
      <trkpt lat="41.880506" lon="2.909901">
        <time>1970-01-01T00:00:00+00:00</time>
        <ele>153.0</ele>
      </trkpt>
      <trkpt lat="41.880271" lon="2.909756">
        <time>1970-01-01T00:00:00+00:00</time>
        <ele>152.0</ele>
      </trkpt>
      <trkpt lat="41.880241" lon="2.909678">
        <time>1970-01-01T00:00:00+00:00</time>
        <ele>152.0</ele>
      </trkpt>
      <trkpt lat="41.880191" lon="2.90943">
        <time>1970-01-01T00:00:00+00:00</time>
        <ele>152.0</ele>
      </trkpt>
      <trkpt lat="41.880208" lon="2.909105">
        <time>1970-01-01T00:00:00+00:00</time>
        <ele>153.0</ele>
      </trkpt>
      <trkpt lat="41.880257" lon="2.908952">
        <time>1970-01-01T00:00:00+00:00</time>
        <ele>153.0</ele>
      </trkpt>
      <trkpt lat="41.880257" lon="2.908952">
        <time>1970-01-01T00:00:00+00:00</time>
        <ele>153.0</ele>
      </trkpt>
      <trkpt lat="41.880208" lon="2.909105">
        <time>1970-01-01T00:00:00+00:00</time>
        <ele>153.0</ele>
      </trkpt>
      <trkpt lat="41.880191" lon="2.90943">
        <time>1970-01-01T00:00:00+00:00</time>
        <ele>152.0</ele>
      </trkpt>
      <trkpt lat="41.880241" lon="2.909678">
        <time>1970-01-01T00:00:00+00:00</time>
        <ele>152.0</ele>
      </trkpt>
      <trkpt lat="41.880271" lon="2.909756">
        <time>1970-01-01T00:00:00+00:00</time>
        <ele>152.0</ele>
      </trkpt>
      <trkpt lat="41.880506" lon="2.909901">
        <time>1970-01-01T00:00:00+00:00</time>
        <ele>153.0</ele>
      </trkpt>
      <trkpt lat="41.880575" lon="2.909923">
        <time>1970-01-01T00:00:00+00:00</time>
        <ele>154.0</ele>
      </trkpt>
      <trkpt lat="41.880603" lon="2.909764">
        <time>1970-01-01T00:00:00+00:00</time>
        <ele>156.0</ele>
      </trkpt>
      <trkpt lat="41.880641" lon="2.909686">
        <time>1970-01-01T00:00:00+00:00</time>
        <ele>157.0</ele>
      </trkpt>
      <trkpt lat="41.880788" lon="2.909525">
        <time>1970-01-01T00:00:00+00:00</time>
        <ele>160.0</ele>
      </trkpt>
      <trkpt lat="41.880811" lon="2.909464">
        <time>1970-01-01T00:00:00+00:00</time>
        <ele>161.0</ele>
      </trkpt>
      <trkpt lat="41.88085" lon="2.909013">
        <time>1970-01-01T00:00:00+00:00</time>
        <ele>163.0</ele>
      </trkpt>
      <trkpt lat="41.880904" lon="2.908856">
        <time>1970-01-01T00:00:00+00:00</time>
        <ele>164.0</ele>
      </trkpt>
      <trkpt lat="41.880965" lon="2.908775">
        <time>1970-01-01T00:00:00+00:00</time>
        <ele>165.0</ele>
      </trkpt>
      <trkpt lat="41.881091" lon="2.908662">
        <time>1970-01-01T00:00:00+00:00</time>
        <ele>167.0</ele>
      </trkpt>
      <trkpt lat="41.881189" lon="2.908611">
        <time>1970-01-01T00:00:00+00:00</time>
        <ele>168.0</ele>
      </trkpt>
      <trkpt lat="41.881259" lon="2.908609">
        <time>1970-01-01T00:00:00+00:00</time>
        <ele>168.0</ele>
      </trkpt>
      <trkpt lat="41.881494" lon="2.908682">
        <time>1970-01-01T00:00:00+00:00</time>
        <ele>172.0</ele>
      </trkpt>
      <trkpt lat="41.881601" lon="2.908696">
        <time>1970-01-01T00:00:00+00:00</time>
        <ele>173.0</ele>
      </trkpt>
      <trkpt lat="41.881848" lon="2.908662">
        <time>1970-01-01T00:00:00+00:00</time>
        <ele>176.0</ele>
      </trkpt>
      <trkpt lat="41.881941" lon="2.908599">
        <time>1970-01-01T00:00:00+00:00</time>
        <ele>177.0</ele>
      </trkpt>
      <trkpt lat="41.881991" lon="2.908532">
        <time>1970-01-01T00:00:00+00:00</time>
        <ele>177.0</ele>
      </trkpt>
      <trkpt lat="41.882059" lon="2.908393">
        <time>1970-01-01T00:00:00+00:00</time>
        <ele>179.0</ele>
      </trkpt>
      <trkpt lat="41.88208" lon="2.908291">
        <time>1970-01-01T00:00:00+00:00</time>
        <ele>179.0</ele>
      </trkpt>
      <trkpt lat="41.882078" lon="2.907923">
        <time>1970-01-01T00:00:00+00:00</time>
        <ele>181.0</ele>
      </trkpt>
      <trkpt lat="41.882111" lon="2.907726">
        <time>1970-01-01T00:00:00+00:00</time>
        <ele>181.0</ele>
      </trkpt>
      <trkpt lat="41.882157" lon="2.907599">
        <time>1970-01-01T00:00:00+00:00</time>
        <ele>180.0</ele>
      </trkpt>
      <trkpt lat="41.882223" lon="2.907507">
        <time>1970-01-01T00:00:00+00:00</time>
        <ele>179.0</ele>
      </trkpt>
      <trkpt lat="41.882357" lon="2.907413">
        <time>1970-01-01T00:00:00+00:00</time>
        <ele>178.0</ele>
      </trkpt>
      <trkpt lat="41.8825" lon="2.907344">
        <time>1970-01-01T00:00:00+00:00</time>
        <ele>178.0</ele>
      </trkpt>
      <trkpt lat="41.882733" lon="2.90727">
        <time>1970-01-01T00:00:00+00:00</time>
        <ele>179.0</ele>
      </trkpt>
      <trkpt lat="41.882849" lon="2.907277">
        <time>1970-01-01T00:00:00+00:00</time>
        <ele>180.0</ele>
      </trkpt>
      <trkpt lat="41.88286" lon="2.907102">
        <time>1970-01-01T00:00:00+00:00</time>
        <ele>179.0</ele>
      </trkpt>
      <trkpt lat="41.882954" lon="2.9067">
        <time>1970-01-01T00:00:00+00:00</time>
        <ele>178.0</ele>
      </trkpt>
      <trkpt lat="41.883041" lon="2.906524">
        <time>1970-01-01T00:00:00+00:00</time>
        <ele>178.0</ele>
      </trkpt>
      <trkpt lat="41.883182" lon="2.906378">
        <time>1970-01-01T00:00:00+00:00</time>
        <ele>180.0</ele>
      </trkpt>
      <trkpt lat="41.883382" lon="2.906245">
        <time>1970-01-01T00:00:00+00:00</time>
        <ele>182.0</ele>
      </trkpt>
      <trkpt lat="41.883553" lon="2.906023">
        <time>1970-01-01T00:00:00+00:00</time>
        <ele>181.0</ele>
      </trkpt>
      <trkpt lat="41.8837" lon="2.905636">
        <time>1970-01-01T00:00:00+00:00</time>
        <ele>181.0</ele>
      </trkpt>
      <trkpt lat="41.883885" lon="2.905442">
        <time>1970-01-01T00:00:00+00:00</time>
        <ele>183.0</ele>
      </trkpt>
      <trkpt lat="41.884083" lon="2.90511">
        <time>1970-01-01T00:00:00+00:00</time>
        <ele>183.0</ele>
      </trkpt>
      <trkpt lat="41.8841" lon="2.905033">
        <time>1970-01-01T00:00:00+00:00</time>
        <ele>183.0</ele>
      </trkpt>
      <trkpt lat="41.884127" lon="2.904602">
        <time>1970-01-01T00:00:00+00:00</time>
        <ele>185.0</ele>
      </trkpt>
      <trkpt lat="41.884115" lon="2.904319">
        <time>1970-01-01T00:00:00+00:00</time>
        <ele>187.0</ele>
      </trkpt>
      <trkpt lat="41.884071" lon="2.904076">
        <time>1970-01-01T00:00:00+00:00</time>
        <ele>190.0</ele>
      </trkpt>
      <trkpt lat="41.883985" lon="2.90383">
        <time>1970-01-01T00:00:00+00:00</time>
        <ele>191.0</ele>
      </trkpt>
      <trkpt lat="41.88393" lon="2.903408">
        <time>1970-01-01T00:00:00+00:00</time>
        <ele>192.0</ele>
      </trkpt>
      <trkpt lat="41.883925" lon="2.903062">
        <time>1970-01-01T00:00:00+00:00</time>
        <ele>192.0</ele>
      </trkpt>
      <trkpt lat="41.883879" lon="2.902871">
        <time>1970-01-01T00:00:00+00:00</time>
        <ele>193.0</ele>
      </trkpt>
      <trkpt lat="41.883991" lon="2.9028">
        <time>1970-01-01T00:00:00+00:00</time>
        <ele>193.0</ele>
      </trkpt>
      <trkpt lat="41.884442" lon="2.902619">
        <time>1970-01-01T00:00:00+00:00</time>
        <ele>194.0</ele>
      </trkpt>
      <trkpt lat="41.884549" lon="2.902707">
        <time>1970-01-01T00:00:00+00:00</time>
        <ele>194.0</ele>
      </trkpt>
      <trkpt lat="41.884735" lon="2.902807">
        <time>1970-01-01T00:00:00+00:00</time>
        <ele>195.0</ele>
      </trkpt>
      <trkpt lat="41.884926" lon="2.902522">
        <time>1970-01-01T00:00:00+00:00</time>
        <ele>198.0</ele>
      </trkpt>
      <trkpt lat="41.885037" lon="2.902425">
        <time>1970-01-01T00:00:00+00:00</time>
        <ele>198.0</ele>
      </trkpt>
      <trkpt lat="41.885105" lon="2.902399">
        <time>1970-01-01T00:00:00+00:00</time>
        <ele>198.0</ele>
      </trkpt>
      <trkpt lat="41.88522" lon="2.902394">
        <time>1970-01-01T00:00:00+00:00</time>
        <ele>198.0</ele>
      </trkpt>
      <trkpt lat="41.885302" lon="2.902428">
        <time>1970-01-01T00:00:00+00:00</time>
        <ele>199.0</ele>
      </trkpt>
      <trkpt lat="41.885425" lon="2.902523">
        <time>1970-01-01T00:00:00+00:00</time>
        <ele>200.0</ele>
      </trkpt>
      <trkpt lat="41.885535" lon="2.90255">
        <time>1970-01-01T00:00:00+00:00</time>
        <ele>200.0</ele>
      </trkpt>
      <trkpt lat="41.885611" lon="2.902507">
        <time>1970-01-01T00:00:00+00:00</time>
        <ele>199.0</ele>
      </trkpt>
      <trkpt lat="41.885642" lon="2.902454">
        <time>1970-01-01T00:00:00+00:00</time>
        <ele>198.0</ele>
      </trkpt>
      <trkpt lat="41.885662" lon="2.902352">
        <time>1970-01-01T00:00:00+00:00</time>
        <ele>196.0</ele>
      </trkpt>
      <trkpt lat="41.885654" lon="2.902257">
        <time>1970-01-01T00:00:00+00:00</time>
        <ele>195.0</ele>
      </trkpt>
      <trkpt lat="41.885597" lon="2.902056">
        <time>1970-01-01T00:00:00+00:00</time>
        <ele>192.0</ele>
      </trkpt>
      <trkpt lat="41.885481" lon="2.901773">
        <time>1970-01-01T00:00:00+00:00</time>
        <ele>188.0</ele>
      </trkpt>
      <trkpt lat="41.885464" lon="2.901684">
        <time>1970-01-01T00:00:00+00:00</time>
        <ele>186.0</ele>
      </trkpt>
      <trkpt lat="41.885489" lon="2.901573">
        <time>1970-01-01T00:00:00+00:00</time>
        <ele>185.0</ele>
      </trkpt>
      <trkpt lat="41.885545" lon="2.901538">
        <time>1970-01-01T00:00:00+00:00</time>
        <ele>185.0</ele>
      </trkpt>
      <trkpt lat="41.885674" lon="2.901558">
        <time>1970-01-01T00:00:00+00:00</time>
        <ele>185.0</ele>
      </trkpt>
      <trkpt lat="41.885726" lon="2.901525">
        <time>1970-01-01T00:00:00+00:00</time>
        <ele>185.0</ele>
      </trkpt>
      <trkpt lat="41.885739" lon="2.901448">
        <time>1970-01-01T00:00:00+00:00</time>
        <ele>184.0</ele>
      </trkpt>
      <trkpt lat="41.88571" lon="2.901363">
        <time>1970-01-01T00:00:00+00:00</time>
        <ele>184.0</ele>
      </trkpt>
      <trkpt lat="41.885616" lon="2.901216">
        <time>1970-01-01T00:00:00+00:00</time>
        <ele>183.0</ele>
      </trkpt>
      <trkpt lat="41.88552" lon="2.901006">
        <time>1970-01-01T00:00:00+00:00</time>
        <ele>181.0</ele>
      </trkpt>
      <trkpt lat="41.885396" lon="2.900795">
        <time>1970-01-01T00:00:00+00:00</time>
        <ele>179.0</ele>
      </trkpt>
      <trkpt lat="41.885304" lon="2.900513">
        <time>1970-01-01T00:00:00+00:00</time>
        <ele>179.0</ele>
      </trkpt>
      <trkpt lat="41.885296" lon="2.900422">
        <time>1970-01-01T00:00:00+00:00</time>
        <ele>179.0</ele>
      </trkpt>
      <trkpt lat="41.88532" lon="2.900303">
        <time>1970-01-01T00:00:00+00:00</time>
        <ele>178.0</ele>
      </trkpt>
      <trkpt lat="41.885449" lon="2.900086">
        <time>1970-01-01T00:00:00+00:00</time>
        <ele>175.0</ele>
      </trkpt>
      <trkpt lat="41.885516" lon="2.899933">
        <time>1970-01-01T00:00:00+00:00</time>
        <ele>175.0</ele>
      </trkpt>
      <trkpt lat="41.885531" lon="2.899841">
        <time>1970-01-01T00:00:00+00:00</time>
        <ele>175.0</ele>
      </trkpt>
      <trkpt lat="41.885516" lon="2.899692">
        <time>1970-01-01T00:00:00+00:00</time>
        <ele>174.0</ele>
      </trkpt>
      <trkpt lat="41.885498" lon="2.899499">
        <time>1970-01-01T00:00:00+00:00</time>
        <ele>174.0</ele>
      </trkpt>
      <trkpt lat="41.885504" lon="2.899408">
        <time>1970-01-01T00:00:00+00:00</time>
        <ele>174.0</ele>
      </trkpt>
      <trkpt lat="41.885609" lon="2.898919">
        <time>1970-01-01T00:00:00+00:00</time>
        <ele>173.0</ele>
      </trkpt>
      <trkpt lat="41.885612" lon="2.898826">
        <time>1970-01-01T00:00:00+00:00</time>
        <ele>173.0</ele>
      </trkpt>
      <trkpt lat="41.885557" lon="2.898565">
        <time>1970-01-01T00:00:00+00:00</time>
        <ele>172.0</ele>
      </trkpt>
      <trkpt lat="41.885551" lon="2.898422">
        <time>1970-01-01T00:00:00+00:00</time>
        <ele>172.0</ele>
      </trkpt>
      <trkpt lat="41.885566" lon="2.898304">
        <time>1970-01-01T00:00:00+00:00</time>
        <ele>172.0</ele>
      </trkpt>
      <trkpt lat="41.885699" lon="2.897914">
        <time>1970-01-01T00:00:00+00:00</time>
        <ele>174.0</ele>
      </trkpt>
      <trkpt lat="41.885723" lon="2.897802">
        <time>1970-01-01T00:00:00+00:00</time>
        <ele>175.0</ele>
      </trkpt>
      <trkpt lat="41.885738" lon="2.897737">
        <time>1970-01-01T00:00:00+00:00</time>
        <ele>175.0</ele>
      </trkpt>
      <trkpt lat="41.885775" lon="2.897671">
        <time>1970-01-01T00:00:00+00:00</time>
        <ele>176.0</ele>
      </trkpt>
      <trkpt lat="41.885872" lon="2.897593">
        <time>1970-01-01T00:00:00+00:00</time>
        <ele>177.0</ele>
      </trkpt>
      <trkpt lat="41.885927" lon="2.897479">
        <time>1970-01-01T00:00:00+00:00</time>
        <ele>177.0</ele>
      </trkpt>
      <trkpt lat="41.885948" lon="2.897387">
        <time>1970-01-01T00:00:00+00:00</time>
        <ele>177.0</ele>
      </trkpt>
      <trkpt lat="41.885953" lon="2.897251">
        <time>1970-01-01T00:00:00+00:00</time>
        <ele>175.0</ele>
      </trkpt>
      <trkpt lat="41.885889" lon="2.896969">
        <time>1970-01-01T00:00:00+00:00</time>
        <ele>171.0</ele>
      </trkpt>
      <trkpt lat="41.885809" lon="2.896707">
        <time>1970-01-01T00:00:00+00:00</time>
        <ele>170.0</ele>
      </trkpt>
      <trkpt lat="41.885762" lon="2.896213">
        <time>1970-01-01T00:00:00+00:00</time>
        <ele>172.0</ele>
      </trkpt>
      <trkpt lat="41.885675" lon="2.89587">
        <time>1970-01-01T00:00:00+00:00</time>
        <ele>175.0</ele>
      </trkpt>
      <trkpt lat="41.885698" lon="2.895797">
        <time>1970-01-01T00:00:00+00:00</time>
        <ele>176.0</ele>
      </trkpt>
      <trkpt lat="41.885907" lon="2.895642">
        <time>1970-01-01T00:00:00+00:00</time>
        <ele>178.0</ele>
      </trkpt>
      <trkpt lat="41.885947" lon="2.895556">
        <time>1970-01-01T00:00:00+00:00</time>
        <ele>179.0</ele>
      </trkpt>
      <trkpt lat="41.885951" lon="2.895511">
        <time>1970-01-01T00:00:00+00:00</time>
        <ele>179.0</ele>
      </trkpt>
      <trkpt lat="41.885927" lon="2.8954">
        <time>1970-01-01T00:00:00+00:00</time>
        <ele>179.0</ele>
      </trkpt>
      <trkpt lat="41.885832" lon="2.895179">
        <time>1970-01-01T00:00:00+00:00</time>
        <ele>179.0</ele>
      </trkpt>
      <trkpt lat="41.885923" lon="2.894969">
        <time>1970-01-01T00:00:00+00:00</time>
        <ele>179.0</ele>
      </trkpt>
      <trkpt lat="41.885991" lon="2.894742">
        <time>1970-01-01T00:00:00+00:00</time>
        <ele>178.0</ele>
      </trkpt>
      <trkpt lat="41.885871" lon="2.894207">
        <time>1970-01-01T00:00:00+00:00</time>
        <ele>176.0</ele>
      </trkpt>
      <trkpt lat="41.885744" lon="2.893836">
        <time>1970-01-01T00:00:00+00:00</time>
        <ele>174.0</ele>
      </trkpt>
      <trkpt lat="41.885593" lon="2.893203">
        <time>1970-01-01T00:00:00+00:00</time>
        <ele>172.0</ele>
      </trkpt>
      <trkpt lat="41.885544" lon="2.893106">
        <time>1970-01-01T00:00:00+00:00</time>
        <ele>171.0</ele>
      </trkpt>
      <trkpt lat="41.885264" lon="2.892829">
        <time>1970-01-01T00:00:00+00:00</time>
        <ele>170.0</ele>
      </trkpt>
      <trkpt lat="41.885216" lon="2.892759">
        <time>1970-01-01T00:00:00+00:00</time>
        <ele>169.0</ele>
      </trkpt>
      <trkpt lat="41.88517" lon="2.892645">
        <time>1970-01-01T00:00:00+00:00</time>
        <ele>168.0</ele>
      </trkpt>
      <trkpt lat="41.885149" lon="2.892461">
        <time>1970-01-01T00:00:00+00:00</time>
        <ele>166.0</ele>
      </trkpt>
      <trkpt lat="41.885129" lon="2.891481">
        <time>1970-01-01T00:00:00+00:00</time>
        <ele>165.0</ele>
      </trkpt>
      <trkpt lat="41.885113" lon="2.891329">
        <time>1970-01-01T00:00:00+00:00</time>
        <ele>166.0</ele>
      </trkpt>
      <trkpt lat="41.88509" lon="2.891254">
        <time>1970-01-01T00:00:00+00:00</time>
        <ele>166.0</ele>
      </trkpt>
      <trkpt lat="41.884984" lon="2.891097">
        <time>1970-01-01T00:00:00+00:00</time>
        <ele>165.0</ele>
      </trkpt>
      <trkpt lat="41.884324" lon="2.890579">
        <time>1970-01-01T00:00:00+00:00</time>
        <ele>161.0</ele>
      </trkpt>
      <trkpt lat="41.88415" lon="2.890377">
        <time>1970-01-01T00:00:00+00:00</time>
        <ele>159.0</ele>
      </trkpt>
      <trkpt lat="41.884078" lon="2.890191">
        <time>1970-01-01T00:00:00+00:00</time>
        <ele>158.0</ele>
      </trkpt>
      <trkpt lat="41.884064" lon="2.890051">
        <time>1970-01-01T00:00:00+00:00</time>
        <ele>158.0</ele>
      </trkpt>
      <trkpt lat="41.884074" lon="2.889693">
        <time>1970-01-01T00:00:00+00:00</time>
        <ele>158.0</ele>
      </trkpt>
      <trkpt lat="41.884123" lon="2.889071">
        <time>1970-01-01T00:00:00+00:00</time>
        <ele>156.0</ele>
      </trkpt>
      <trkpt lat="41.884198" lon="2.888533">
        <time>1970-01-01T00:00:00+00:00</time>
        <ele>156.0</ele>
      </trkpt>
      <trkpt lat="41.884313" lon="2.888005">
        <time>1970-01-01T00:00:00+00:00</time>
        <ele>159.0</ele>
      </trkpt>
      <trkpt lat="41.884383" lon="2.887978">
        <time>1970-01-01T00:00:00+00:00</time>
        <ele>159.0</ele>
      </trkpt>
      <trkpt lat="41.885209" lon="2.88742">
        <time>1970-01-01T00:00:00+00:00</time>
        <ele>155.0</ele>
      </trkpt>
      <trkpt lat="41.885283" lon="2.887068">
        <time>1970-01-01T00:00:00+00:00</time>
        <ele>152.0</ele>
      </trkpt>
      <trkpt lat="41.885293" lon="2.886457">
        <time>1970-01-01T00:00:00+00:00</time>
        <ele>150.0</ele>
      </trkpt>
      <trkpt lat="41.885654" lon="2.885162">
        <time>1970-01-01T00:00:00+00:00</time>
        <ele>143.0</ele>
      </trkpt>
      <trkpt lat="41.885653" lon="2.883967">
        <time>1970-01-01T00:00:00+00:00</time>
        <ele>142.0</ele>
      </trkpt>
      <trkpt lat="41.885805" lon="2.882807">
        <time>1970-01-01T00:00:00+00:00</time>
        <ele>142.0</ele>
      </trkpt>
      <trkpt lat="41.885815" lon="2.882727">
        <time>1970-01-01T00:00:00+00:00</time>
        <ele>143.0</ele>
      </trkpt>
      <trkpt lat="41.885965" lon="2.882258">
        <time>1970-01-01T00:00:00+00:00</time>
        <ele>145.0</ele>
      </trkpt>
      <trkpt lat="41.88623" lon="2.88137">
        <time>1970-01-01T00:00:00+00:00</time>
        <ele>143.0</ele>
      </trkpt>
      <trkpt lat="41.886307" lon="2.880633">
        <time>1970-01-01T00:00:00+00:00</time>
        <ele>141.0</ele>
      </trkpt>
    </trkseg>
  </trk>
</gpx>
